Regional Weather Roundup
Issued by NWS

Home | Current Version | Previous Version | Text Only | Print | Product List | Glossary On
Versions: 1 2 3 4 5 6 7 8 9 10 11 12 13 14 15 16 17 18 19 20 21 22 23 24 25 26 27 28 29 30 31 32 33 34 35 36 37 38 39 40 41 42 43 44 45 46 47 48 49 50
000
ASUS43 KLSX 230959
RWRMO

WEATHER SUMMARY FOR MISSOURI
NATIONAL WEATHER SERVICE SPRINGFIELD MO
500 AM CDT SAT MAY 23 2015

NOTE: "FAIR" INDICATES FEW OR NO CLOUDS BELOW 12,000 FEET WITH NO
       SIGNIFICANT WEATHER AND/OR OBSTRUCTIONS TO VISIBILITY.
       CURRENT SKY AND/OR WEATHER CONDITIONS ARE NOT AVAILABLE FOR
       CHILLICOTHE AND FARMINGTON.

MOZ001>031-035>038-043-044-053-054-231100-
...NORTHERN AND WESTERN MISSOURI...

CITY           SKY/WX    TMP DP  RH WIND       PRES   REMARKS
KANSAS CTY INT CLOUDY    60  51  72 S7        30.21R
KANSAS C DTWN  CLOUDY    62  50  64 S6        30.20S
LEE`S SUMMIT   CLOUDY    59  51  75 S5        30.21S
ST JOSEPH      CLOUDY    59  53  80 SE6       30.20S
KIRKSVILLE     CLOUDY    57  54  89 SE5       30.27R

$$
MOZ066>068-077>081-088>096-101>105-231100-
...SOUTHWEST MISSOURI...

CITY           SKY/WX    TMP DP  RH WIND       PRES   REMARKS
SPRINGFIELD    CLOUDY    59  48  67 SE13      30.22S
JOPLIN         CLOUDY    59  52  77 S5        30.21R

$$
MOZ032>034-039>042-045>050-055>058-069>072-231100-
...CENTRAL MISSOURI...

CITY           SKY/WX    TMP DP  RH WIND       PRES   REMARKS
COLUMBIA       CLOUDY    60  53  77 SE6       30.26S
JEFFERSON CITY CLOUDY    60  54  80 SE5       30.26S
ROLLA          MOCLDY    57  49  74 SE8       30.26S
SEDALIA        CLOUDY    60  51  72 SE6       30.25R
OSAGE BEACH    CLOUDY    59  48  67 E3        30.25S

$$
MOZ051-052-059>065-231100-
...EAST CENTRAL MISSOURI...

CITY           SKY/WX    TMP DP  RH WIND       PRES   REMARKS
ST LOUIS INTL  NOT AVBL
SPIRIT OF STL  CLOUDY    59  58  96 CALM      30.28R
ST CHARLES     CLOUDY    60  58  92 CALM      30.28R

$$
MOZ072>076-082>087-097>100-106>115-231100-
...SOUTH CENTRAL AND SOUTHEAST MISSOURI...

CITY           SKY/WX    TMP DP  RH WIND       PRES   REMARKS
CAPE GIRARDEAU CLOUDY    59  57  93 CALM      30.30R
FARMINGTON     CLOUDY    57  52  82 SE3       30.33S
POPLAR BLUFF   CLOUDY    60  55  83 CALM      30.27S
WEST PLAINS    CLOUDY    58  49  72 CALM      30.28R

$$


USA.gov is the U.S. government's official web portal to all federal, state and local government web resources and services.